Weather History for Fallon NAS, NV

Change the Weather History Date:

Thursday, April 3, 2014

  Actual Average Record
Temperature  
Mean Temperature 42 °F -  
Max Temperature 59 °F 61 °F 89 °F (1961)
Min Temperature 27 °F 31 °F 16 °F (1956)
Degree Days  
Heating Degree Days 23    
Moisture  
Dew Point 22 °F    
Average Humidity 52    
Maximum Humidity 89    
Minimum Humidity 18    
Precipitation  
Precipitation 0.00 in - - ()
Sea Level Pressure  
Sea Level Pressure 29.94 in    
Wind  
Wind Speed 6 mph (SSE)    
Max Wind Speed 9 mph    
Max Gust Speed -    
Visibility 10 miles    
Events      
Averages and records for this station are not official NWS values.
T = Trace of Precipitation, MM = Missing Value Source: NWS Daily Summary

Daily Weather History Graph

Daily Weather History Graph

Search for Another Location

Airport:

Trip Planner

Search our weather history database for the weather conditions in past years. The results will help you decide how hot, cold, wet, or windy it might be!

Date:

Astronomy

Apr. 03, 2014 Rise Set
Actual Time 6:35 AM PDT 7:20 PM PDT
Civil Twilight 6:08 AM PDT 7:48 PM PDT
Nautical Twilight 5:36 AM PDT 8:20 PM PDT
Astronomical Twilight 5:03 AM PDT 8:53 PM PDT
Moon 9:09 AM PDT (4/3) 11:43 PM PDT (4/3)
Length of Visible Light 13h 39m
Length of Day
12h 44m
Waxing Crescent, 18% of the Moon is Illuminated
Apr 3
Waxing Crescent
Apr 7
First Quarter
Apr 15
Full
Apr 22
Last Quarter
Apr 28
New

Hourly Weather History & Observations

Time (PDT) Temp. Windchill Dew Point Humidity Pressure Visibility Wind Dir Wind Speed Gust Speed Precip Events Conditions
12:56 AM 28.0 °F 21.7 °F 23.0 °F 81% 29.96 in 10.0 mi SSE 5.8 mph - N/A   Clear
1:56 AM 28.9 °F 25.2 °F 24.1 °F 82% 29.96 in 10.0 mi South 3.5 mph - N/A   Clear
2:56 AM 28.0 °F 20.0 °F 24.1 °F 85% 29.96 in 10.0 mi South 8.1 mph - N/A   Clear
3:56 AM 28.0 °F 19.3 °F 23.0 °F 81% 29.95 in 10.0 mi SSE 9.2 mph - N/A   Clear
4:56 AM 27.0 °F 18.7 °F 24.1 °F 89% 29.96 in 10.0 mi SSE 8.1 mph - N/A   Clear
5:56 AM 27.0 °F 19.5 °F 24.1 °F 89% 29.97 in 10.0 mi South 6.9 mph - N/A   Clear
6:15 AM 27.0 °F 19.5 °F 23.0 °F 85% 30.06 in 10.0 mi SE 6.9 mph - N/A   Mostly Cloudy
6:56 AM 28.0 °F 20.8 °F 25.0 °F 88% 29.98 in 10.0 mi SE 6.9 mph - N/A   Mostly Cloudy
7:56 AM 33.1 °F - 27.0 °F 78% 29.99 in 10.0 mi Calm Calm - N/A   Overcast
8:56 AM 39.9 °F 35.1 °F 28.9 °F 65% 29.99 in 10.0 mi SE 6.9 mph - N/A   Overcast
9:56 AM 45.0 °F 41.8 °F 28.9 °F 53% 29.99 in 10.0 mi SSE 5.8 mph - N/A   Overcast
10:56 AM 48.9 °F - 27.0 °F 43% 29.99 in 10.0 mi Variable 3.5 mph - N/A   Overcast
11:56 AM 51.1 °F - 21.9 °F 32% 29.98 in 10.0 mi Variable 4.6 mph - N/A   Overcast
12:56 PM 54.0 °F - 19.9 °F 26% 29.96 in 10.0 mi SE 6.9 mph - N/A   Overcast
1:56 PM 54.0 °F - 19.9 °F 26% 29.94 in 10.0 mi ESE 6.9 mph - N/A   Overcast
2:56 PM 55.9 °F - 18.0 °F 23% 29.91 in 10.0 mi Variable 3.5 mph - N/A   Mostly Cloudy
3:56 PM 57.0 °F - 16.0 °F 20% 29.89 in 10.0 mi ENE 4.6 mph - N/A   Mostly Cloudy
4:56 PM 57.0 °F - 14.0 °F 18% 29.87 in 10.0 mi Calm Calm - N/A   Overcast
5:56 PM 55.9 °F - 12.0 °F 18% 29.86 in 10.0 mi ESE 4.6 mph - N/A   Overcast
6:56 PM 55.0 °F - 15.1 °F 21% 29.87 in 10.0 mi Variable 3.5 mph - N/A   Overcast
8:56 PM 53.1 °F - 19.0 °F 26% 29.88 in 10.0 mi West 6.9 mph - N/A   Overcast
9:56 PM 46.9 °F - 21.9 °F 37% 29.88 in 10.0 mi NW 6.9 mph - N/A   Scattered Clouds
10:56 PM 46.0 °F 41.9 °F 23.0 °F 40% 29.89 in 10.0 mi NW 8.1 mph - N/A   Scattered Clouds
11:56 PM 42.1 °F 39.2 °F 23.0 °F 47% 29.89 in 10.0 mi NW 4.6 mph - N/A   Clear